Location: Trophy Club
(32.9979°N, 97.1836°W)
Time: 04:43:23
(UTC+00:00)

Daily predictions for brighter satellites

Satellite Brightness Start Highest point End
(mag) Time Altitude Azimuth Time Altitude Azimuth Time Altitude Azimuth
Cosmos 1743 Rocket 3.6 00:00:10 10° N 00:04:30 81° W 00:08:49 10° S
Cosmos 990 Rocket 4.0 00:02:54 10° NNW 00:08:06 86° WSW 00:13:13 10° SSE
CZ-2D R/B 3.5 00:05:18 10° SSE 00:08:58 45° ENE 00:12:38 10° N
CORIOLIS 4.1 00:03:41 10° SSE 00:09:02 81° ENE 00:14:29 10° N
CZ-4B DEB 4.2 00:05:18 10° SSE 00:10:47 70° ENE 00:16:16 10° N
Cosmos 1634 Rocket 4.0 00:05:43 10° S 00:12:02 86° E 00:18:23 10° N
Cosmos 1340 Rocket 4.0 00:08:22 10° NNW 00:12:17 46° W 00:16:11 10° SSW
Meteor 2-21 4.5 00:07:10 10° N 00:13:08 58° E 00:19:04 10° SSE
Cosmos 1328 Rocket 4.3 00:10:35 10° SSE 00:14:31 33° E 00:18:30 10° NNE
Cosmos 1666 Rocket 4.3 00:12:02 10° NNE 00:15:56 30° ENE 00:19:47 10° SE
CZ-2C R/B 2.3 00:12:56 10° SW 00:16:49 35° SSE 00:19:38 16° E
COSMOS 2406 4.4 00:17:22 10° SW 00:22:46 42° WNW 00:28:11 10° N
ARGOS 3.6 00:20:55 10° SE 00:25:53 38° ENE 00:30:51 10° N
Cosmos 2026 Rocket 3.9 00:20:35 10° N 00:26:42 86° E 00:32:45 10° S
Cosmos 1500 3.0 00:23:33 10° N 00:27:16 69° E 00:30:58 10° SSE
SKYMED 2 3.5 00:24:41 10° NNE 00:29:02 76° E 00:33:22 10° S
COSMOS 2455 3.6 00:23:16 10° SW 00:29:05 51° WNW 00:34:57 10° NNE
Landsat 5 3.5 00:26:43 10° NNE 00:30:42 51° E 00:34:31 10° S
Cosmos 858 Rocket 4.4 00:26:48 10° NNW 00:32:05 73° ENE 00:37:18 10° SSE
MOS 1-B Rocket 4.4 00:27:52 10° N 00:33:58 77° WNW 00:41:01 10° SSW
USA 229 DEB 3.9 00:27:08 10° NNW 00:34:42 84° ENE 00:42:38 10° SSE
USA 229 3.9 00:27:13 10° NNW 00:34:48 83° ENE 00:42:43 10° SSE
Meteor 2-6 Rocket 4.3 00:29:07 10° S 00:34:50 60° E 00:40:26 10° NNE
PSLV R/B 4.1 00:31:41 10° S 00:35:18 62° W 00:38:59 10° NNW
Meteor 2-14 Rocket 4.5 00:30:49 10° N 00:36:56 85° W 00:43:00 10° S
Cosmos 1570 Rocket 4.0 00:32:59 10° SSW 00:38:14 88° WNW 00:43:30 10° NNE
PAYLOAD B 4.3 00:32:58 10° SSE 00:38:35 84° WSW 00:44:13 10° NNW
Cosmos 2180 Rocket 4.4 00:36:49 10° S 00:43:08 72° E 00:49:26 10° N
USA 234 3.2 00:37:41 10° SE 00:44:10 71° NE 00:50:41 10° NW
CZ-4B R/B 3.1 00:38:51 10° SSE 00:44:17 74° ENE 00:49:39 10° N
Sich 1 3.6 00:40:27 10° NNW 00:44:40 58° W 00:48:53 10° S
Cosmos 1814 Rocket 4.4 00:39:57 10° SSW 00:45:10 64° WNW 00:50:20 10° N
GPS 2-04 Rocket1 2.8 00:41:40 10° WNW 00:45:45 64° N 00:47:01 40° ENE
H-2A R/B 3.9 00:49:34 17° SE 00:49:34 17° SE 00:51:07 10° SSE
Cosmos 1900 4.4 00:46:31 10° SSW 00:51:21 73° WNW 00:54:41 20° NNE
deb Chang Zheng 4 3.4 00:47:26 10° SSE 00:51:44 83° ENE 00:56:03 10° N
BREEZE M DEB (TANK) 4.1 00:33:33 10° NW 00:51:50 80° NE 00:55:30 21° ESE
CZ-4C R/B 2.7 00:51:56 50° NNE 00:52:41 77° E 00:56:03 10° S
Meteor 2-8 Rocket 4.4 00:47:27 10° S 00:53:35 86° E 00:59:46 10° N
Meteor 1-10 Rocket 4.2 00:48:14 10° S 00:53:59 64° E 00:59:17 12° NNE
CZ-2C R/B 3.0 00:48:59 10° N 00:54:05 61° WNW 00:59:09 10° SSW
Cosmos 1515 Rocket 3.6 00:51:28 10° S 00:55:47 52° E 00:56:50 42° NE
Cosmos 1666 2.5 00:53:09 10° N 00:56:52 88° ENE 01:00:34 10° S
Feng Yun 1-1 Rocket 4.3 01:00:17 10° SSE 01:06:04 59° ENE 01:11:52 10° N
X-37B 1.9 01:04:49 10° SW 01:06:34 33° SW 01:06:34 33° SW
Cosmos 1867 3.9 01:05:38 10° S 01:10:39 44° ESE 01:10:39 44° ESE
H-2A R/B 3.4 01:08:13 10° SSW 01:13:06 39° W 01:17:52 10° NNW
USA 276 3.4 01:11:21 10° WNW 01:13:40 39° W 01:13:40 39° W
APEX 3.2 01:10:56 10° SSW 01:15:26 81° WNW 01:15:26 81° WNW
CZ-4C R/B 3.1 01:09:48 10° NNW 01:17:22 58° ENE 01:21:47 30° ESE
Cosmos 921 Rocket 3.7 01:19:07 10° SSW 01:23:09 50° WNW 01:24:15 39° NNW
USA 32 3.8 01:19:57 10° S 01:25:10 80° E 01:25:45 69° NNE
Cosmos 1633 Rocket 4.2 01:24:25 10° NNW 01:28:32 41° W 01:32:39 10° SSW
Okean O Rocket 3.0 01:28:18 10° SSW 01:32:25 38° W 01:36:35 10° NNW
Cosmos 1980 Rocket 3.2 01:35:55 10° NW 01:41:14 44° WSW 01:46:30 10° S
SL-16 R/B 4.5 01:46:38 10° N 01:46:59 12° N 01:46:59 12° N
Cosmos 2266 Rocket 4.4 01:47:18 10° NNW 01:53:37 64° W 01:59:55 10° S
CZ-2C R/B 3.5 01:52:05 10° W 01:53:47 23° W 01:53:47 23° W
ATLAS 3B CENTAUR R/B 4.3 01:38:10 10° W 01:58:03 74° S 02:02:42 51° ESE
Meteor 1-27 Rocket 4.4 01:56:09 10° SSW 02:01:30 49° W 02:01:40 49° WNW
Cosmos 2369 Rocket 4.1 10:05:54 26° E 10:05:54 26° E 10:09:58 10° NE
CENTAUR R/B 4.3 10:38:46 19° N 10:38:46 19° N 10:40:49 10° NNE
DELTA 2 R/B (1) 4.1 10:47:13 53° NE 10:47:13 53° NE 10:51:26 10° ENE
Cosmos 2082 Rocket 3.9 10:50:12 21° S 10:50:12 21° S 10:52:05 10° S
Cosmos 2034 Rocket 3.9 10:51:33 81° N 10:51:55 89° E 10:58:14 10° S
OAO 3 Rocket 4.0 10:55:21 48° SE 10:55:21 48° SE 10:59:05 10° ESE
Cosmos 1570 Rocket 3.8 11:11:19 78° NW 11:11:35 82° WSW 11:16:51 10° SSE
Cosmos 1634 Rocket 4.5 11:06:49 10° N 11:12:59 59° E 11:19:05 10° SSE
Tsikada Rocket 3.9 11:09:27 10° SSW 11:15:32 60° W 11:21:42 10° N
Cosmos 1814 Rocket 4.0 11:17:44 56° SW 11:17:44 56° SW 11:22:11 10° S
ATLAS 5 CENTAUR R/B 4.0 11:15:14 10° SSE 11:17:54 19° ESE 11:20:38 10° ENE
Hubble Space Telescope 2.5 11:29:19 21° SSW 11:29:20 21° SSW 11:32:28 10° SSE
Meteor 1-31 Rocket 3.3 11:25:48 10° NNE 11:29:39 59° E 11:33:30 10° S
Centaur D-1A AC-35 3.9 11:27:36 17° SW 11:30:20 26° S 11:33:27 10° ESE
Cosmos 921 Rocket 3.3 11:30:39 23° N 11:33:20 68° ENE 11:37:47 10° SSE
Cosmos 1782 2.6 11:33:13 70° WNW 11:33:27 73° W 11:37:22 10° S
APEX 4.1 11:36:03 30° SSW 11:36:03 30° SSW 11:38:14 10° S
Cosmos 1862 3.3 11:31:50 10° S 11:35:45 79° E 11:39:42 10° N
H-2A R/B 2.5 11:34:47 22° N 11:37:07 72° WNW 11:40:52 10° SSW
Cosmos 1241 Rocket 4.3 11:34:24 27° NNW 11:37:59 79° WSW 11:44:10 10° SSE
Cosmos 2263 4.1 11:32:40 10° SSW 11:38:15 62° WNW 11:43:56 10° NNE
YAOGAN 6 4.1 11:40:32 24° SSW 11:40:32 24° SSW 11:42:07 10° SSW
Okean 3 Rocket 3.7 11:35:05 10° S 11:39:36 80° E 11:44:08 10° N
SAR-Lupe-3 4.4 11:37:38 10° N 11:41:13 85° WNW 11:44:49 10° SSW
Meteor 1-26 Rocket 4.3 11:38:32 14° NNW 11:43:35 59° W 11:49:08 10° S
Cosmos 2208 Rocket 4.3 11:43:24 32° NW 11:45:29 48° WSW 11:50:35 10° S
Cosmos 1867 3.8 11:43:54 34° WNW 11:45:52 50° WSW 11:51:04 10° S
Cosmos 1503 Rocket 3.9 11:41:24 10° SSW 11:46:38 78° WNW 11:51:57 10° NNE
Gbstr 26 Del rocket 3.1 11:46:53 43° W 11:47:44 52° SW 11:52:02 10° SSE
Cosmos 1151 Rocket 3.1 11:43:26 10° N 11:47:50 78° E 11:52:11 10° S
Cosmos 1766 Rocket 3.4 11:44:09 10° SSW 11:48:27 69° W 11:52:46 10° N
Cosmos 2369 Rocket 2.7 11:47:55 30° W 11:49:13 34° WNW 11:54:16 10° N
BREEZE-M DEB (TANK) 4.1 11:37:03 16° NW 11:51:17 77° NE 11:56:14 10° ESE
SJ-12 4.1 11:48:02 10° N 11:52:00 46° WNW 11:55:57 10° SSW
